User: anonymous   Login
Location: Unspecified
(0.0000°N, 0.0000°E)
Time: 15:30:16
(UTC+02:00)
Language:

GP-B - Orbit

View from above orbital plane
View from above orbital plane
View from above satellite
View from above satellite

Ground track
Ground track

The orbit data is extracted from the following two-line orbital elements,

1 28230U 04014A   14296.58633228  .00001027  00000-0  14131-3 0  1987
2 28230 089.8803 138.2246 0002793 088.7627 271.3916 14.77688960566156
Epoch (UTC): 23 October 2014 14:04:19
Eccentricity: 0.0002793
inclination: 89.8803°
perigee height: 634 km
apogee height: 638 km
right ascension of ascending node: 138.2246°
argument of perigee: 88.7627°
revolutions per day: 14.77688960
mean anomaly at epoch: 271.3916°
orbit number at epoch: 56615

The dashed part of the orbit path shows where the satellite is in the earth's shadow,  

DLR